KQ4VHC Weather Reports


Display with metric or nautical units.
time (UTC)temp
F
wind
direction
speed
MPH
gust
MPH
rain 1hr
in
rain 24hr
in
rain mn
in
humidity
%
barometer
mb
20260504050508 48 155 0.0 2.0 0.00 0.00 0.00 70 1015.3
20260504050025 48 155 0.0 2.0 0.00 0.00 0.00 72 1015.3
20260504045507 48 274 0.0 0.0 0.00 0.00 0.00 72 1015.3
20260504045012 48 274 0.0 0.0 0.00 0.00 0.00 71 1015.1
20260504044531 48 274 0.0 0.0 0.00 0.00 0.00 70 1015.1
20260504044006 48 274 0.0 0.0 0.00 0.00 0.00 69 1015.0
20260504043506 48 274 0.0 0.0 0.00 0.00 0.00 70 1015.1
20260504043030 48 274 0.0 0.0 0.00 0.00 0.00 69 1015.2
20260504042508 48 274 0.0 0.0 0.00 0.00 0.00 70 1015.1
20260504042011 48 274 0.0 0.0 0.00 0.00 0.00 70 1015.1
20260504041520 48 274 0.0 0.0 0.00 0.00 0.00 70 1015.0
20260504041002 48 274 0.0 1.0 0.00 0.00 0.00 68 1015.0
20260504040502 48 274 0.0 1.0 0.00 0.00 0.00 62 1015.0
20260504040008 47 269 0.0 0.0 0.00 0.00 0.00 62 1015.0
20260504035506 47 269 0.0 0.0 0.00 0.00 0.00 69 1014.9
20260504035004 47 269 0.0 0.0 0.00 0.00 0.00 71 1014.9
20260504034514 48 269 0.0 0.0 0.00 0.00 0.00 69 1015.0
20260504034004 48 269 0.0 0.0 0.00 0.00 0.00 69 1015.0
20260504033513 48 269 0.0 0.0 0.00 0.00 0.00 68 1015.0
20260504033012 47 269 0.0 0.0 0.00 0.00 0.00 68 1014.9
20260504032506 48 269 0.0 0.0 0.00 0.00 0.00 70 1014.9
20260504032006 47 269 0.0 0.0 0.00 0.00 0.00 65 1014.9
20260504031522 47 269 0.0 0.0 0.00 0.00 0.00 67 1014.9
20260504031008 47 269 0.0 1.0 0.00 0.00 0.00 65 1015.0
20260504030508 47 269 0.0 1.0 0.00 0.00 0.00 67 1015.0
20260504030023 48 269 0.0 0.0 0.00 0.00 0.00 68 1015.0
20260504025503 48 269 0.0 0.0 0.00 0.00 0.00 65 1015.0
20260504025003 48 269 0.0 0.0 0.00 0.00 0.00 66 1014.9
20260504024510 48 269 0.0 1.0 0.00 0.00 0.00 63 1015.0
20260504024002 48 269 0.0 2.0 0.00 0.00 0.00 64 1015.0
20260504023507 48 269 0.0 2.0 0.00 0.00 0.00 63 1015.1
20260504023009 47 265 0.0 2.0 0.00 0.00 0.00 63 1015.1
20260504022508 47 265 1.0 2.0 0.00 0.00 0.00 63 1015.0
20260504022004 47 263 1.0 2.0 0.00 0.00 0.00 62 1014.9
20260504021522 47 259 1.0 1.0 0.00 0.00 0.00 61 1014.8
20260504021006 46 258 0.0 1.0 0.00 0.00 0.00 62 1014.6
20260504020506 46 257 0.0 0.0 0.00 0.00 0.00 63 1014.7
20260504020020 46 266 0.0 1.0 0.00 0.00 0.00 63 1014.7
20260504015508 46 266 0.0 1.0 0.00 0.00 0.00 63 1014.8
20260504015010 46 266 0.0 1.0 0.00 0.00 0.00 62 1014.5
20260504014522 46 266 0.0 1.0 0.00 0.00 0.00 61 1014.6
20260504014003 46 266 0.0 1.0 0.00 0.00 0.00 61 1014.6
20260504013506 46 256 0.0 0.0 0.00 0.00 0.00 61 1014.6
20260504013010 47 255 0.0 0.0 0.00 0.00 0.00 60 1014.4
20260504012504 47 255 0.0 0.0 0.00 0.00 0.00 59 1014.4
20260504012004 47 255 0.0 0.0 0.00 0.00 0.00 58 1014.3
20260504011509 48 255 0.0 0.0 0.00 0.00 0.00 58 1014.3
20260504011008 48 255 0.0 0.0 0.00 0.00 0.00 57 1014.3
20260504010504 48 256 0.0 0.0 0.00 0.00 0.00 56 1014.3
20260504010017 49 257 0.0 0.0 0.00 0.00 0.00 55 1014.2
20260504005507 49 258 0.0 0.0 0.00 0.00 0.00 53 1014.2
20260504005010 50 258 0.0 0.0 0.00 0.00 0.00 52 1014.3
20260504004520 50 257 0.0 0.0 0.00 0.00 0.00 52 1014.2
20260504004008 51 257 0.0 0.0 0.00 0.00 0.00 50 1014.2
20260504003508 52 257 0.0 0.0 0.00 0.00 0.00 50 1014.2
20260504003023 52 257 0.0 0.0 0.00 0.00 0.00 47 1014.1
20260504002508 53 257 0.0 0.0 0.00 0.00 0.00 47 1014.1
20260504002004 54 257 0.0 0.0 0.00 0.00 0.00 46 1014.2
20260504001509 54 257 0.0 0.0 0.00 0.00 0.00 44 1014.1
20260504001005 55 257 0.0 0.0 0.00 0.00 0.00 45 1014.1
20260504000507 56 257 0.0 0.0 0.00 0.00 0.00 45 1014.1
20260504000028 56 257 0.0 0.0 0.00 0.00 0.00 41 1014.0
20260503235510 57 257 0.0 0.0 0.00 0.00 0.00 40 1014.0
20260503235007 58 259 0.0 0.0 0.00 0.00 0.00 36 1014.0
20260503234518 59 259 0.0 1.0 0.00 0.00 0.00 35 1013.9
20260503234011 60 259 0.0 1.0 0.00 0.00 0.00 33 1013.9
20260503233507 61 252 0.0 1.0 0.00 0.00 0.00 29 1013.8
20260503233022 61 252 0.0 2.0 0.00 0.00 0.00 27 1013.8
20260503232507 61 252 0.0 2.0 0.00 0.00 0.00 27 1013.7
20260503232013 62 264 0.0 2.0 0.00 0.00 0.00 26 1013.7
20260503231527 62 264 0.0 3.0 0.00 0.00 0.00 26 1013.7
20260503231009 62 276 1.0 4.0 0.00 0.00 0.00 25 1013.6
20260503230505 63 259 0.0 7.0 0.00 0.00 0.00 25 1013.5
20260503230025 63 278 2.0 7.0 0.00 0.00 0.00 24 1013.5
20260503225505 63 241 4.0 7.0 0.00 0.00 0.00 25 1013.5
20260503225006 63 255 0.0 6.0 0.00 0.00 0.00 25 1013.5
20260503224514 64 238 3.0 5.0 0.00 0.00 0.00 24 1013.5
20260503224009 65 261 2.0 5.0 0.00 0.00 0.00 24 1013.6
20260503223508 64 275 3.0 8.0 0.00 0.00 0.00 24 1013.7
20260503223026 64 261 3.0 8.0 0.00 0.00 0.00 24 1013.7
20260503222508 64 229 5.0 13.0 0.00 0.00 0.00 23 1013.6
20260503222010 64 265 4.0 13.0 0.00 0.00 0.00 25 1013.6
20260503221532 64 274 4.0 9.0 0.00 0.00 0.00 25 1013.7
20260503221012 64 246 3.0 8.0 0.00 0.00 0.00 23 1013.7
20260503220510 65 255 4.0 8.0 0.00 0.00 0.00 24 1013.7
20260503220028 65 281 1.0 5.0 0.00 0.00 0.00 24 1013.7
20260503215510 64 271 2.0 5.0 0.00 0.00 0.00 26 1013.8
20260503215005 64 263 3.0 9.0 0.00 0.00 0.00 25 1013.8
20260503214514 64 78 0.0 9.0 0.00 0.00 0.00 24 1013.9
20260503214010 65 221 3.0 9.0 0.00 0.00 0.00 24 1013.9
20260503213506 65 242 1.0 9.0 0.00 0.00 0.00 25 1013.8
20260503213027 65 308 2.0 10.0 0.00 0.00 0.00 22 1013.7
20260503212507 64 233 5.0 10.0 0.00 0.00 0.00 24 1013.7
20260503212010 64 243 6.0 10.0 0.00 0.00 0.00 24 1013.7
20260503211523 64 266 6.0 9.0 0.00 0.00 0.00 23 1013.7
20260503211012 65 247 2.0 5.0 0.00 0.00 0.00 27 1013.8
20260503210509 64 202 2.0 5.0 0.00 0.00 0.00 28 1013.8
20260503210028 64 59 2.0 5.0 0.00 0.00 0.00 24 1013.9
20260503205509 64 320 1.0 5.0 0.00 0.00 0.00 26 1013.9
20260503205015 64 153 2.0 7.0 0.00 0.00 0.00 26 1013.9
20260503204528 64 262 3.0 7.0 0.00 0.00 0.00 25 1014.0
20260503204011 64 258 1.0 5.0 0.00 0.00 0.00 27 1014.2
20260503203506 64 237 1.0 5.0 0.00 0.00 0.00 26 1014.2
20260503203016 65 198 3.0 5.0 0.00 0.00 0.00 26 1014.3
20260503202509 66 72 2.0 6.0 0.00 0.00 0.00 28 1014.3
20260503202012 65 119 3.0 6.0 0.00 0.00 0.00 31 1014.2
20260503201530 64 212 2.0 6.0 0.00 0.00 0.00 25 1014.4
20260503201008 64 109 1.0 6.0 0.00 0.00 0.00 26 1014.4
20260503200507 63 233 2.0 10.0 0.00 0.00 0.00 27 1014.6
20260503200030 63 200 3.0 11.0 0.00 0.00 0.00 30 1014.6
20260503195508 62 214 5.0 11.0 0.00 0.00 0.00 27 1014.6
20260503195012 63 231 5.0 10.0 0.00 0.00 0.00 26 1014.8
20260503194529 63 45 2.0 10.0 0.00 0.00 0.00 27 1014.8
20260503194010 62 148 6.0 10.0 0.00 0.00 0.00 26 1014.9
20260503193513 63 262 4.0 7.0 0.00 0.00 0.00 26 1014.9
20260503193026 63 185 1.0 8.0 0.00 0.00 0.00 28 1015.0
20260503192509 63 255 3.0 11.0 0.00 0.00 0.00 31 1015.1
20260503192011 62 145 4.0 11.0 0.00 0.00 0.00 27 1015.2
20260503191520 62 257 4.0 7.0 0.00 0.00 0.00 28 1015.4
20260503191007 62 113 2.0 9.0 0.00 0.00 0.00 28 1015.4
20260503190507 62 227 2.0 9.0 0.00 0.00 0.00 29 1015.5
20260503190007 62 240 3.0 12.0 0.00 0.00 0.00 31 1015.6
20260503185510 62 282 5.0 12.0 0.00 0.00 0.00 28 1015.8
20260503185003 61 205 2.0 8.0 0.00 0.00 0.00 32 1015.7
20260503184507 61 207 2.0 8.0 0.00 0.00 0.00 28 1015.8
20260503184003 61 266 2.0 12.0 0.00 0.00 0.00 28 1015.9
20260503183505 60 160 5.0 12.0 0.00 0.00 0.00 31 1016.1
20260503183017 61 269 5.0 12.0 0.00 0.00 0.00 28 1016.1
20260503182502 61 263 2.0 12.0 0.00 0.00 0.00 32 1016.2
20260503182005 61 226 6.0 9.0 0.00 0.00 0.00 34 1016.2
20260503181552 60 34 2.0 9.0 0.00 0.00 0.00 33 1016.2
20260503181004 61 231 6.0 10.0 0.00 0.00 0.00 30 1016.1
20260503180507 60 168 3.0 10.0 0.00 0.00 0.00 32 1016.2
20260503180020 59 271 6.0 10.0 0.00 0.00 0.00 33 1016.2
20260503175510 59 241 4.0 17.0 0.00 0.00 0.00 32 1016.5
20260503175010 59 309 5.0 17.0 0.00 0.00 0.00 32 1016.5
20260503174504 59 263 6.0 12.0 0.00 0.00 0.00 30 1016.5
20260503174002 59 266 6.0 12.0 0.00 0.00 0.00 30 1016.6
20260503173502 59 238 5.0 12.0 0.00 0.00 0.00 33 1016.6
20260503173024 59 288 7.0 12.0 0.00 0.00 0.00 32 1016.7
20260503172502 59 51 4.0 9.0 0.00 0.00 0.00 33 1016.6
20260503172003 58 268 4.0 10.0 0.00 0.00 0.00 32 1016.7
20260503171524 58 236 4.0 10.0 0.00 0.00 0.00 33 1016.9
20260503171006 59 282 3.0 9.0 0.00 0.00 0.00 35 1016.9
20260503170503 59 131 2.0 11.0 0.00 0.00 0.00 33 1017.0
20260503151003 53 346 4.0 10.0 0.00 0.00 0.00 35 1018.4
20260503150505 54 296 6.0 11.0 0.00 0.00 0.00 38 1018.5
20260503131007 49 248 3.0 10.0 0.00 0.00 0.00 45 1018.1
20260503130509 50 239 2.0 9.0 0.00 0.00 0.00 48 1018.1
20260503110513 43 274 0.0 2.0 0.00 0.00 0.00 63 1017.1
20260503090505 43 237 2.0 6.0 0.00 0.00 0.00 53 1015.1
20260503081516 44 269 1.0 4.0 0.00 0.00 0.00 54 1014.8
20260503081007 43 273 0.0 4.0 0.00 0.00 0.00 57 1014.8
20260503080505 43 246 0.0 2.0 0.00 0.00 0.00 54 1014.7
20260503072506 44 136 0.0 5.0 0.00 0.00 0.00 53 1014.5
20260503072006 44 242 2.0 10.0 0.00 0.00 0.00 55 1014.5
20260503071519 43 198 0.0 10.0 0.00 0.00 0.00 59 1014.4
20260503071004 42 67 0.0 9.0 0.00 0.00 0.00 62 1014.3
20260503070504 41 234 0.0 1.0 0.00 0.00 0.00 67 1014.3